This demonstration page uses our WeatherBlox Daily Observations layout. Learn more.

Left ArrowRight Arrow

Hourly Observations for August 23, 2017

Temp ( °F °C ) Dew Point ( °F °C ) Humidity (%) Winds ( mph kmh ) Pressure ( in mb ) Visibility ( mi km ) Precip ( " mm )
12:15 am 00:15 Cloudy 64 17.6 60 15.7 89 89 NW 5 7 30.00 1016 10 16 0.00 0.00
12:35 am 00:35 Mostly Cloudy 63 17 60 15.5 91 91 NW 5 7 30.00 1016 10 16 0.00 0.00
12:55 am 00:55 Partly Cloudy 62 16.5 60 15.5 94 94 NW 5 7 30.00 1016 10 16 0.00 0.00
1:15 am 01:15 Partly Cloudy 61 16.1 59 15.2 94 94 NW 5 7 30.03 1017 10 16 0.00 0.00
1:35 am 01:35 Clear 60 15.6 58 14.7 94 94 Calm 30.03 1017 10 16 0.00 0.00
1:55 am 01:55 Clear 58 14.7 58 14.5 99 99 Calm 30.03 1017 10 16 0.00 0.00
2:15 am 02:15 Clear 58 14.6 58 14.3 98 98 Calm 30.03 1017 10 16 0.00 0.00
2:35 am 02:35 Clear 58 14.6 58 14.4 99 99 Calm 30.03 1017 10 16 0.00 0.00
2:55 am 02:55 Clear 57 13.8 56 13.5 98 98 Calm 30.03 1017 10 16 0.00 0.00
3:15 am 03:15 Clear 57 14 57 13.8 99 99 NW 3 6 30.03 1017 10 16 0.00 0.00
3:35 am 03:35 Clear 58 14.7 58 14.5 99 99 Calm 30.03 1017 10 16 0.00 0.00
3:55 am 03:55 Clear 57 14.1 57 14 99 99 Calm 30.03 1017 7 11 0.00 0.00
4:15 am 04:15 Clear 58 14.5 58 14.2 98 98 Calm 30.03 1017 7 11 0.00 0.00
4:35 am 04:35 Clear 57 14.1 57 13.9 99 99 Calm 30.03 1017 7 11 0.00 0.00
4:55 am 04:55 Clear 56 13.6 56 13.5 99 99 Calm 30.03 1017 7 11 0.00 0.00
5:15 am 05:15 Clear with Mist and Fog 55 12.9 55 12.7 99 99 Calm 30.03 1017 5 8 0.00 0.00
5:35 am 05:35 Clear 56 13.1 55 12.9 99 99 Calm 30.03 1017 7 11 0.00 0.00
5:55 am 05:55 Clear 57 14 57 13.7 98 98 NW 6 9 30.03 1017 10 16 0.00 0.00
6:15 am 06:15 Partly Cloudy 57 14.1 56 13.6 97 97 WNW 3 6 30.03 1017 10 16 0.00 0.00
6:35 am 06:35 Mostly Cloudy 58 14.2 56 13.5 96 96 NW 5 7 30.03 1017 10 16 0.00 0.00
6:55 am 06:55 Mostly Cloudy 56 13.6 55 13 96 96 Calm 30.03 1017 10 16 0.00 0.00
7:15 am 07:15 Mostly Cloudy 56 13.5 55 12.8 96 96 NW 3 6 30.03 1017 10 16 0.00 0.00
7:35 am 07:35 Partly Cloudy 56 13.6 55 12.9 96 96 NW 3 6 30.03 1017 10 16 0.00 0.00
7:55 am 07:55 Partly Cloudy 58 14.2 56 13.2 94 94 NW 5 7 30.06 1018 10 16 0.00 0.00
8:15 am 08:15 Mostly Cloudy 58 14.6 56 13.3 92 92 Calm 30.06 1018 10 16 0.00 0.00
8:35 am 08:35 Partly Cloudy 60 15.5 56 13.2 86 86 NW 3 6 30.06 1018 10 16 0.00 0.00
8:55 am 08:55 Sunny 61 16.2 56 13.1 82 82 NNW 6 9 30.06 1018 10 16 0.00 0.00
9:15 am 09:15 Sunny 63 17 56 13.1 78 78 NNW 7 11 30.06 1018 10 16 0.00 0.00
9:35 am 09:35 Mostly Cloudy 63 17.2 56 13.1 77 77 NNW 5 7 30.06 1018 10 16 0.00 0.00
9:55 am 09:55 Partly Cloudy 65 18.1 56 13.6 75 75 NNW 5 7 30.06 1018 10 16 0.00 0.00
10:15 am 10:15 Mostly Cloudy 65 18.5 57 13.8 74 74 WNW 5 7 30.06 1018 10 16 0.00 0.00
10:35 am 10:35 Partly Cloudy 67 19.5 57 14.1 71 71 NW 5 7 30.06 1018 10 16 0.00 0.00
10:55 am 10:55 Sunny 68 19.9 58 14.2 70 70 NNW 5 7 30.06 1018 10 16 0.00 0.00
11:15 am 11:15 Sunny 69 20.4 57 14.1 67 67 NNW 3 6 30.06 1018 10 16 0.00 0.00
11:35 am 11:35 Sunny 69 20.7 57 13.8 65 65 NNW 5 7 30.06 1018 10 16 0.00 0.00
11:55 am 11:55 Sunny 70 21.2 55 12.7 58 58 W 6 9 30.06 1018 10 16 0.00 0.00
12:15 pm 12:15 Sunny 72 22.1 53 11.8 52 52 WNW 7 11 30.03 1017 10 16 0.00 0.00
12:35 pm 12:35 Partly Cloudy 71 21.9 52 11 50 50 NW 6 9 30.03 1017 10 16 0.00 0.00
12:55 pm 12:55 Mostly Cloudy 71 21.7 51 10.4 49 49 NW 9 15 30.06 1018 10 16 0.00 0.00
1:15 pm 13:15 Partly Cloudy 72 22 53 11.9 53 53 NNW 12 19 30.03 1017 10 16 0.00 0.00
1:35 pm 13:35 Partly Cloudy 72 22.1 52 11.3 50 50 NW 12 19 30.03 1017 10 16 0.00 0.00
1:55 pm 13:55 Partly Cloudy 73 22.7 53 11.6 50 50 WNW 8 13 30.03 1017 10 16 0.00 0.00
2:15 pm 14:15 Partly Cloudy 73 22.7 52 10.9 47 47 NW 8 13 30.03 1017 10 16 0.00 0.00
2:35 pm 14:35 Partly Cloudy 73 22.8 52 11.1 48 48 W 10 17 30.03 1017 10 16 0.00 0.00
2:55 pm 14:55 Partly Cloudy 73 22.8 51 10.5 46 46 N 7 11 30.03 1017 10 16 0.00 0.00
3:15 pm 15:15 Partly Cloudy 73 23 51 10.4 45 45 NW 10 17 30.03 1017 10 16 0.00 0.00
3:35 pm 15:35 Partly Cloudy 71 21.8 50 10 47 47 NNW 8 13 30.03 1017 10 16 0.00 0.00
3:55 pm 15:55 Partly Cloudy 73 23 51 10.3 45 45 NW 7 11 30.00 1016 10 16 0.00 0.00
4:15 pm 16:15 Partly Cloudy 71 21.8 51 10.6 49 49 N 7 11 30.00 1016 10 16 0.00 0.00
4:35 pm 16:35 Partly Cloudy 73 22.7 51 10.7 47 47 NW 5 7 30.00 1016 10 16 0.00 0.00
4:55 pm 16:55 Partly Cloudy 73 23 52 10.9 47 47 N 7 11 30.00 1016 10 16 0.00 0.00
5:15 pm 17:15 Sunny 72 22.3 52 10.9 49 49 NNW 9 15 30.00 1016 10 16 0.00 0.00
5:35 pm 17:35 Sunny 72 22.2 51 10.7 48 48 NNW 7 11 30.00 1016 10 16 0.00 0.00
5:55 pm 17:55 Sunny 71 21.6 51 10.7 50 50 WNW 6 9 30.00 1016 10 16 0.00 0.00
6:15 pm 18:15 Partly Cloudy 72 22 53 11.6 52 52 NW 5 7 30.00 1016 10 16 0.00 0.00
6:35 pm 18:35 Sunny 73 22.5 53 11.9 51 51 NNW 5 7 30.00 1016 10 16 0.00 0.00
6:55 pm 18:55 Sunny 72 22 52 11.1 50 50 WNW 6 9 30.00 1016 10 16 0.00 0.00
7:15 pm 19:15 Sunny 71 21.5 53 11.4 53 53 NNW 5 7 30.00 1016 10 16 0.00 0.00
7:35 pm 19:35 Sunny 70 21 53 11.8 56 56 NNW 3 6 30.03 1017 10 16 0.00 0.00
7:55 pm 19:55 Sunny 69 20.5 54 12.3 59 59 Calm 30.03 1017 10 16 0.00 0.00
8:15 pm 20:15 Sunny 66 18.8 56 13.1 70 70 Calm 30.03 1017 10 16 0.00 0.00
8:35 pm 20:35 Clear 66 18.7 54 12.4 67 67 Calm 30.03 1017 10 16 0.00 0.00
8:55 pm 20:55 Clear 63 17.3 55 13 76 76 Calm 30.03 1017 10 16 0.00 0.00
9:15 pm 21:15 Clear 60 15.4 55 12.8 85 85 Calm 30.03 1017 10 16 0.00 0.00
9:35 pm 21:35 Clear 60 15.8 55 12.5 81 81 Calm 30.03 1017 10 16 0.00 0.00
9:55 pm 21:55 Partly Cloudy 58 14.7 55 12.7 88 88 Calm 30.03 1017 10 16 0.00 0.00
10:15 pm 22:15 Partly Cloudy 57 14.1 55 12.6 91 91 Calm 30.03 1017 10 16 0.00 0.00
10:35 pm 22:35 Mostly Cloudy 58 14.6 55 12.9 90 90 Calm 30.03 1017 10 16 0.00 0.00
10:55 pm 22:55 Mostly Cloudy 58 14.3 55 12.6 90 90 Calm 30.03 1017 10 16 0.00 0.00
11:15 pm 23:15 Partly Cloudy 57 13.7 54 12.4 92 92 Calm 30.03 1017 10 16 0.00 0.00
11:35 pm 23:35 Partly Cloudy 56 13.5 54 12.4 93 93 NW 3 6 30.03 1017 10 16 0.00 0.00
11:55 pm 23:55 Clear 56 13.2 54 12 93 93 Calm 30.06 1018 10 16 0.00 0.00

Powered by AerisWeather